Simultaneous Nadir Overpasses (SNOs) Predictions

Prediction of SNOs between LANDSAT-8 and NOAA-19 Satellite Orbit:

Table of predicted SNOs for the next 14.0 days since TLE Epoch: 9/25/2021
Index Date (LANDSAT-8) Time (LANDSAT-8) Lat,Lon (LANDSAT-8) SZA (LANDSAT-8 ) Date (NOAA-19) Time (NOAA-19) Lat,Lon (NOAA-19) SZA (NOAA-19 ) Distance(km) Time Diff (sec)
1 09/25/2021 10:43:41 80.52, 51.53 83.18 09/25/2021 10:43:51 80.54, 51.51 83.20 2.31 10
2 09/27/2021 16:17:26 -80.53, 148.26 95.91 09/27/2021 16:16:53 -80.54, 148.21 95.92 1.51 33
3 09/27/2021 17:06:52 80.54, -44.03 84.12 09/27/2021 17:07:57 80.53, -44.20 84.12 3.28 65
4 09/29/2021 21:51:10 80.56,-114.92 85.02 09/29/2021 21:50:04 80.54,-114.87 84.99 2.41 66
5 09/29/2021 22:40:38 -80.52, 52.39 95.03 09/29/2021 22:40:59 -80.54, 52.40 95.01 1.35 21
6 10/02/2021 04:14:22 80.55, 149.19 85.90 10/02/2021 04:14:11 80.54, 149.02 85.88 3.20 11
7 10/02/2021 05:03:48 -80.58, -42.85 94.04 10/02/2021 05:05:00 -80.45, -41.71 94.00 25.22 72
8 10/04/2021 09:48:08 -80.54,-114.37 93.25 10/04/2021 09:47:12 -80.55,-114.19 93.25 3.41 56
9 10/04/2021 10:37:34 80.54, 53.30 86.77 10/04/2021 10:38:17 80.54, 53.21 86.78 1.47 43
10 10/06/2021 16:11:19 -80.56, 150.07 92.33 10/06/2021 16:11:18 -80.54, 149.97 92.35 2.67 1
11 10/08/2021 21:45:04 80.55,-113.50 88.52 10/08/2021 21:44:30 80.55,-113.42 88.51 1.50 34



Historial Predications of SNOs between LANDSAT-8 and NOAA-19
